Weather History for St. Cloud, MN

Change the Weather History Date:

Sunday, December 16, 2012

  Actual Average Record
Temperature  
Mean Temperature 26 °F 15 °F  
Max Temperature 34 °F 24 °F 57 °F (1939)
Min Temperature 17 °F 7 °F -24 °F (2008)
Degree Days  
Heating Degree Days 39 50  
Month to date heating degree days 644 750  
Since 1 July heating degree days 2466 2675  
Cooling Degree Days 0 0  
Month to date cooling degree days 0 0  
Year to date cooling degree days 739 465  
Moisture  
Dew Point 19 °F    
Average Humidity 85    
Maximum Humidity 92    
Minimum Humidity 77    
Precipitation  
Precipitation 0.00 in 0.02 in 0.69 in (1984)
Month to date precipitation 1.43 0.44  
Year to date precipitation 24.94 27.35  
Snow  
Snow 0.00 in 0.30 in 4.00 in (1940)
Month to date snowfall 13.2 4.9  
Since 1 July snowfall 16.4 14.1  
Snow Depth 6.00 in    
Sea Level Pressure  
Sea Level Pressure 29.77 in    
Wind  
Wind Speed 10 mph (NW)    
Max Wind Speed 18 mph    
Max Gust Speed 21 mph    
Visibility 6 miles    
Events      
T = Trace of Precipitation, MM = Missing Value Source: NWS Daily Summary

Daily Weather History Graph

Daily Weather History Graph

Search for Another Location

Airport:

Trip Planner

Search our weather history database for the weather conditions in past years. The results will help you decide how hot, cold, wet, or windy it might be!

Date:

Astronomy

Dec. 16, 2012 Rise Set
Actual Time 7:50 AM CST 4:33 PM CST
Civil Twilight 7:16 AM CST 5:07 PM CST
Nautical Twilight 6:38 AM CST 5:45 PM CST
Astronomical Twilight 6:02 AM CST 6:21 PM CST
Moon 10:15 AM CST (12/16) 8:58 PM CST (12/16)
Length of Visible Light 9h 51m
Length of Day
8h 42m
Waxing Crescent, 16% of the Moon is Illuminated
Dec 16
Waxing Crescent
Dec 19
First Quarter
Dec 28
Full
Jan 4
Last Quarter
Jan 11
New

Hourly Weather History & Observations

Time (CST) Temp. Windchill Dew Point Humidity Pressure Visibility Wind Dir Wind Speed Gust Speed Precip Events Conditions
12:53 AM 34.0 °F 25.5 °F 30.9 °F 89% 29.62 in 9.0 mi NW 11.5 mph - N/A   Overcast
1:53 AM 33.8 °F 25.8 °F 30.2 °F 87% 29.58 in 2.5 mi NNW 10.4 mph - N/A   Overcast
2:53 AM 32.0 °F 22.1 °F 30.0 °F 92% 29.66 in 2.5 mi NW 13.8 mph - N/A   Overcast
3:53 AM 30.0 °F 19.1 °F 28.0 °F 92% 29.68 in 3.0 mi WNW 15.0 mph - N/A   Overcast
4:53 AM 27.0 °F 15.2 °F 24.1 °F 89% 29.70 in 3.0 mi NW 15.0 mph - N/A   Overcast
5:53 AM 24.1 °F 12.5 °F 21.9 °F 91% 29.72 in 3.0 mi NW 12.7 mph - N/A   Overcast
6:53 AM 21.0 °F 8.1 °F 19.0 °F 92% 29.74 in 2.5 mi NW 13.8 mph - N/A   Overcast
7:14 AM 19.4 °F 5.5 °F 17.6 °F 93% 29.69 in 3.0 mi WNW 15.0 mph - N/A   Overcast
7:53 AM 19.0 °F 4.5 °F 17.1 °F 92% 29.76 in 2.5 mi NW 16.1 mph - N/A   Overcast
8:53 AM 18.0 °F 4.2 °F 16.0 °F 92% 29.77 in 2.5 mi NW 13.8 mph - N/A   Overcast
9:00 AM 19.4 °F 7.2 °F 15.8 °F 86% 29.70 in 3.0 mi NW 11.5 mph - N/A   Overcast
9:53 AM 18.0 °F 4.8 °F 16.0 °F 92% 29.80 in 4.0 mi NW 12.7 mph - N/A   Overcast
10:53 AM 18.0 °F 4.8 °F 14.0 °F 84% 29.81 in 5.0 mi NNW 12.7 mph - N/A   Overcast
11:53 AM 18.0 °F 7.7 °F 14.0 °F 84% 29.81 in 5.0 mi NNW 8.1 mph - N/A   Overcast
12:53 PM 18.0 °F 4.2 °F 14.0 °F 84% 29.81 in 7.0 mi NNW 13.8 mph - N/A   Overcast
1:53 PM 19.0 °F 10.0 °F 15.1 °F 85% 29.80 in 10.0 mi NNW 6.9 mph - N/A   Overcast
2:53 PM 19.9 °F 8.6 °F 15.1 °F 81% 29.80 in 10.0 mi NNW 10.4 mph - N/A   Overcast
3:53 PM 19.9 °F 13.4 °F 16.0 °F 85% 29.81 in 10.0 mi NNW 4.6 mph - N/A   Overcast
4:53 PM 19.9 °F 9.3 °F 16.0 °F 85% 29.83 in 10.0 mi NNW 9.2 mph - N/A   Overcast
5:53 PM 21.0 °F 11.4 °F 16.0 °F 81% 29.84 in 10.0 mi NNW 8.1 mph - N/A   Overcast
6:53 PM 21.0 °F 10.6 °F 16.0 °F 81% 29.86 in 10.0 mi North 9.2 mph - N/A   Overcast
7:53 PM 21.0 °F 11.4 °F 17.1 °F 85% 29.86 in 10.0 mi North 8.1 mph - N/A   Overcast
8:53 PM 21.0 °F 10.6 °F 17.1 °F 85% 29.86 in 10.0 mi North 9.2 mph - N/A   Overcast
9:53 PM 21.9 °F 15.7 °F 18.0 °F 85% 29.87 in 10.0 mi NNW 4.6 mph - N/A   Overcast
10:53 PM 21.9 °F - 18.0 °F 85% 29.87 in 10.0 mi Calm Calm - N/A   Overcast
11:53 PM 21.9 °F 17.2 °F 18.0 °F 85% 29.87 in 10.0 mi NNW 3.5 mph - N/A   Overcast